Time,TemperatureF,DewpointF,PressureIn,WindDirection,WindDirectionDegrees,WindSpeedMPH,WindSpeedGustMPH,Humidity,HourlyPrecipIn,Conditions,Clouds,dailyrainin,SoftwareType,DateUTC
2013-06-10 00:00:00,67.0,54.9,29.85,NW,321,0.0,3.0,65,0.00,CLR,FEW,0.00,WeatherDisplay:10.37,2013-06-09 22:00:00,
2013-06-10 01:00:00,65.2,55.2,29.84,NW,304,0.0,3.0,70,0.00,CLR,FEW,0.00,WeatherDisplay:10.37,2013-06-09 23:00:00,
2013-06-10 02:00:00,65.1,54.7,29.84,North,349,1.0,3.0,69,0.00,CLR,FEW,0.00,WeatherDisplay:10.37,2013-06-10 00:00:00,
2013-06-10 03:00:00,64.5,54.1,29.83,North,357,0.0,2.0,69,0.00,CLR,FEW,0.00,WeatherDisplay:10.37,2013-06-10 01:00:00,
2013-06-10 04:00:00,63.6,54.0,29.83,NW,320,0.0,2.0,71,0.00,CLR,FEW,0.00,WeatherDisplay:10.37,2013-06-10 02:00:00,
2013-06-10 05:00:00,64.0,54.4,29.84,NNE,21,0.0,1.0,71,0.00,CLR,FEW,0.00,WeatherDisplay:10.37,2013-06-10 03:00:00,
2013-06-10 06:00:00,64.4,54.0,29.82,NNE,19,0.0,2.0,69,0.00,CLR,FEW,0.00,WeatherDisplay:10.37,2013-06-10 04:00:00,
2013-06-10 07:00:00,65.6,57.8,29.81,NW,304,2.0,4.0,76,0.00,CLR,FEW,0.00,WeatherDisplay:10.37,2013-06-10 05:00:00,
2013-06-10 08:00:00,70.1,59.5,29.81,SSE,165,0.0,3.0,69,0.00,CLR,FEW,0.00,WeatherDisplay:10.37,2013-06-10 06:00:00,
2013-06-10 09:00:00,70.5,61.0,29.82,South,188,1.0,8.0,72,0.00,CLR,FEW,0.00,WeatherDisplay:10.37,2013-06-10 07:00:00,
2013-06-10 10:00:00,73.8,61.7,29.82,SW,236,1.0,7.0,66,0.00,CLR,FEW,0.00,WeatherDisplay:10.37,2013-06-10 08:00:00,
2013-06-10 11:00:00,73.1,60.6,29.83,WSW,239,3.0,8.0,65,0.00,CLR,FEW,0.00,WeatherDisplay:10.37,2013-06-10 09:00:00,
2013-06-10 12:00:00,75.9,60.5,29.83,SW,215,2.0,10.0,59,0.00,CLR,FEW,0.00,WeatherDisplay:10.37,2013-06-10 10:00:00,
2013-06-10 13:00:00,77.0,61.1,29.82,SSW,208,3.0,12.0,58,0.00,CLR,FEW,0.00,WeatherDisplay:10.37,2013-06-10 11:00:00,
2013-06-10 14:00:00,77.6,61.2,29.81,WSW,241,6.0,13.0,57,0.00,CLR,FEW,0.00,WeatherDisplay:10.37,2013-06-10 12:00:00,
2013-06-10 15:00:00,77.2,58.2,29.81,WSW,238,3.0,14.0,52,0.00,CLR,FEW,0.00,WeatherDisplay:10.37,2013-06-10 13:00:00,
2013-06-10 16:00:00,77.2,54.2,29.80,SSW,213,5.0,12.0,45,0.00,CLR,FEW,0.00,WeatherDisplay:10.37,2013-06-10 14:00:00,
2013-06-10 17:00:00,76.8,52.6,29.79,SW,217,3.0,12.0,43,0.00,CLR,FEW,0.00,WeatherDisplay:10.37,2013-06-10 15:00:00,
2013-06-10 18:00:00,75.3,53.1,29.78,WSW,253,5.0,12.0,46,0.00,CLR,FEW,0.00,WeatherDisplay:10.37,2013-06-10 16:00:00,
2013-06-10 19:00:00,73.8,52.3,29.79,WSW,245,5.0,10.0,47,0.00,CLR,FEW,0.00,WeatherDisplay:10.37,2013-06-10 17:00:00,
2013-06-10 20:00:00,70.1,56.1,29.80,WSW,242,5.0,12.0,61,0.00,CLR,FEW,0.00,WeatherDisplay:10.37,2013-06-10 18:00:00,
2013-06-10 21:00:00,66.6,56.1,29.82,WSW,240,2.0,12.0,69,0.00,CLR,FEW,0.00,WeatherDisplay:10.37,2013-06-10 19:00:00,
2013-06-10 22:00:00,65.5,57.0,29.83,WSW,241,2.0,7.0,74,0.00,CLR,FEW,0.00,WeatherDisplay:10.37,2013-06-10 20:00:00,
2013-06-10 23:00:00,65.0,56.5,29.84,SSW,197,1.0,3.0,74,0.00,CLR,FEW,0.00,WeatherDisplay:10.37,2013-06-10 21:00:00,